TimeEDT,TemperatureF,Dew PointF,Humidity,Sea Level PressureIn,VisibilityMPH,Wind Direction,Wind SpeedMPH,Gust SpeedMPH,PrecipitationIn,Events,Conditions,WindDirDegrees,DateUTC
12:53 AM,79.0,71.1,77,30.13,10.0,Calm,Calm,-,N/A,,Overcast,0,2013-07-22 04:53:00
1:53 AM,79.0,72.0,79,30.11,10.0,SE,4.6,-,N/A,,Overcast,140,2013-07-22 05:53:00
2:53 AM,78.1,73.0,84,30.09,10.0,SW,3.5,-,N/A,,Mostly Cloudy,220,2013-07-22 06:53:00
3:53 AM,78.1,73.0,84,30.10,10.0,NNW,5.8,-,N/A,,Overcast,340,2013-07-22 07:53:00
4:53 AM,80.1,73.9,81,30.08,10.0,ESE,5.8,-,N/A,,Overcast,120,2013-07-22 08:53:00
5:53 AM,80.1,73.0,79,30.09,10.0,SSE,4.6,-,N/A,,Mostly Cloudy,150,2013-07-22 09:53:00
6:53 AM,80.1,73.0,79,30.10,10.0,SE,4.6,-,N/A,,Mostly Cloudy,130,2013-07-22 10:53:00
7:53 AM,82.9,73.9,74,30.12,10.0,SE,5.8,-,N/A,,Mostly Cloudy,140,2013-07-22 11:53:00
8:53 AM,84.0,73.9,72,30.13,10.0,SSE,10.4,-,N/A,,Mostly Cloudy,160,2013-07-22 12:53:00
9:53 AM,86.0,73.0,65,30.14,10.0,SSE,10.4,-,N/A,,Mostly Cloudy,150,2013-07-22 13:53:00
10:53 AM,89.1,73.0,59,30.14,10.0,SSE,10.4,-,N/A,,Mostly Cloudy,160,2013-07-22 14:53:00
11:53 AM,90.0,72.0,55,30.14,10.0,SE,8.1,-,N/A,,Mostly Cloudy,130,2013-07-22 15:53:00
12:53 PM,90.0,71.1,54,30.14,10.0,SSE,10.4,16.1,N/A,,Mostly Cloudy,150,2013-07-22 16:53:00
1:53 PM,91.0,71.1,52,30.12,10.0,SSE,12.7,17.3,N/A,,Scattered Clouds,150,2013-07-22 17:53:00
2:53 PM,91.0,70.0,50,30.11,10.0,SSE,11.5,-,N/A,,Scattered Clouds,160,2013-07-22 18:53:00
3:53 PM,91.0,71.1,52,30.09,10.0,SSE,12.7,19.6,N/A,,Scattered Clouds,150,2013-07-22 19:53:00
4:53 PM,90.0,70.0,52,30.08,10.0,ESE,11.5,-,N/A,,Scattered Clouds,120,2013-07-22 20:53:00
5:53 PM,89.1,71.1,55,30.07,10.0,SE,12.7,-,N/A,,Scattered Clouds,140,2013-07-22 21:53:00
6:53 PM,87.1,72.0,61,30.08,10.0,SE,11.5,-,N/A,,Scattered Clouds,140,2013-07-22 22:53:00
7:53 PM,84.9,73.0,67,30.09,10.0,SE,8.1,-,N/A,,Scattered Clouds,140,2013-07-22 23:53:00
8:53 PM,84.0,73.0,69,30.09,10.0,SE,9.2,-,N/A,,Scattered Clouds,140,2013-07-23 00:53:00
9:53 PM,84.0,72.0,67,30.10,10.0,SSE,6.9,-,N/A,,Scattered Clouds,160,2013-07-23 01:53:00
10:53 PM,82.9,72.0,69,30.10,10.0,SSE,8.1,-,N/A,,Partly Cloudy,160,2013-07-23 02:53:00
11:53 PM,82.9,72.0,69,30.11,10.0,South,4.6,-,N/A,,Scattered Clouds,180,2013-07-23 03:53:00